This is the latest recevied weather packets stored in our database for station/object W0AVQ. If no packets are shown the sender has not sent any weather packets the latest 10 day(s).
| Time | Temp. | Humidity | Pressure | Rain* | Wind** | Luminosity | Snow |
|---|---|---|---|---|---|---|---|
| 1778053565 | 7.78° C | 99% | 1012.8 hPa | 0 mm | - | 0 W/m² | - |
| 1778053261 | 7.78° C | 99% | 1012.9 hPa | 0 mm | - | 0 W/m² | - |
| 1778052959 | 7.78° C | 99% | 1012.6 hPa | 0 mm | - | 0 W/m² | - |
| 1778052656 | 7.78° C | 99% | 1012.5 hPa | 0 mm | - | 0 W/m² | - |
| 1778052353 | 7.78° C | 99% | 1012.7 hPa | 0 mm | - | 0 W/m² | - |
| 1778052051 | 7.78° C | 99% | 1012.5 hPa | 0 mm | - | 0 W/m² | - |
| 1778051749 | 7.78° C | 99% | 1012.7 hPa | 0 mm | - | 0 W/m² | - |
| 1778051446 | 7.78° C | 99% | 1012.8 hPa | 0 mm | - | 0 W/m² | - |
| 1778051143 | 7.78° C | 99% | 1012.5 hPa | 0 mm | - | 0 W/m² | - |
| 1778050840 | 7.78° C | 99% | 1013 hPa | 0 mm | - | 0 W/m² | - |
| 1778050538 | 7.78° C | 99% | 1013.1 hPa | 0 mm | - | 0 W/m² | - |
| 1778050234 | 7.78° C | 99% | 1013.1 hPa | 1.78 mm | - | 0 W/m² | - |
| 1778049931 | 7.78° C | 99% | 1013.1 hPa | 1.78 mm | - | 0 W/m² | - |
| 1778049626 | 7.78° C | 99% | 1013.2 hPa | 1.27 mm | - | 0 W/m² | - |
| 1778049325 | 7.78° C | 99% | 1013.3 hPa | 3.05 mm | - | 0 W/m² | - |
| 1778049022 | 7.78° C | 99% | 1012.9 hPa | 4.83 mm | - | 0 W/m² | - |
| 1778048720 | 7.78° C | 99% | 1013.1 hPa | 6.1 mm | - | 0 W/m² | - |
| 1778048417 | 8.33° C | 99% | 1012.8 hPa | 8.89 mm | - | 0 W/m² | - |
| 1778048113 | 8.33° C | 99% | 1012.7 hPa | 6.1 mm | - | 0 W/m² | - |
| 1778047811 | 8.33° C | 99% | 1012.5 hPa | 0 mm | - | 0 W/m² | - |
| 1778047509 | 8.33° C | 99% | 1011.9 hPa | 0 mm | - | 0 W/m² | - |
| 1778047206 | 8.33° C | 99% | 1012 hPa | 1.78 mm | - | 0 W/m² | - |
| 1778046903 | 8.89° C | 99% | 1012 hPa | 6.1 mm | - | 0 W/m² | - |
| 1778046599 | 8.89° C | 99% | 1012.1 hPa | 11.94 mm | - | 0 W/m² | - |
| 1778046296 | 8.89° C | 99% | 1012.2 hPa | 15.49 mm | - | 0 W/m² | - |
* Rain latest hour (hover to see other rain measurements)
** Current wind speed in m/s (hover to see current wind gust speed)